Anoka County, MN

4:19 PM CST on December 15, 2017 (GMT -0600)
Anoka County / Blaine Airport

Weather History for KANE - December, 2012

Change the Weather History Date:

Monday, December 24, 2012

  Actual Average Record
Temperature  
Mean Temperature 12 °F -  
Max Temperature 17 °F 22 °F 42 °F (2011)
Min Temperature 5 °F 8 °F -11 °F (2000)
Degree Days  
Heating Degree Days 54    
Moisture  
Dew Point 7 °F    
Average Humidity 74    
Maximum Humidity 85    
Minimum Humidity 53    
Precipitation  
Precipitation 0.00 in - - ()
Sea Level Pressure  
Sea Level Pressure 30.09 in    
Wind  
Wind Speed 7 mph (North)    
Max Wind Speed 15 mph    
Max Gust Speed -    
Visibility 10 miles    
Events      
Averages and records for this station are not official NWS values.
T = Trace of Precipitation, MM = Missing Value Source: NWS Daily Summary

Daily Weather History Graph

Daily Weather History Graph

Search for Another Location

Airport or City:

Trip Planner

Search our weather history database for the weather conditions in past years. The results will help you decide how hot, cold, wet, or windy it might be!

Date:

Astronomy

Dec. 24, 2012 Rise Set
Actual Time 7:50 AM CST 4:35 PM CST
Civil Twilight 7:16 AM CST 5:09 PM CST
Nautical Twilight 6:38 AM CST 5:46 PM CST
Astronomical Twilight 6:02 AM CST 6:22 PM CST
Moon 2:06 PM CST (12/24) 4:25 AM CST (12/24)
Length of Visible Light 9h 53m
Length of Day
8h 45m
Waxing Gibbous, 88% of the Moon is Illuminated
Dec 24
Waxing Gibbous
Dec 28
Full
Jan 4
Last Quarter
Jan 11
New
Jan 18
First Quarter

Hourly Weather History & Observations

Time (CST) Temp. Windchill Dew Point Humidity Pressure Visibility Wind Dir Wind Speed Gust Speed Precip Events Conditions
12:14 AM 17.6 °F 9.3 °F 10.4 °F 73% 30.01 in 10.0 mi NNE 5.8 mph - N/A   Overcast
12:34 AM 17.6 °F 9.3 °F 10.4 °F 73% 30.01 in 10.0 mi NNE 5.8 mph - N/A   Overcast
12:54 AM 17.6 °F 9.3 °F 10.4 °F 73% 30.01 in 10.0 mi NNE 5.8 mph - N/A   Overcast
1:14 AM 17.6 °F 10.7 °F 10.4 °F 73% 30.00 in 10.0 mi NNE 4.6 mph - N/A   Overcast
1:34 AM 17.6 °F 12.3 °F 10.4 °F 73% 30.00 in 10.0 mi NNE 3.5 mph - N/A   Overcast
1:54 AM 17.6 °F 8.2 °F 10.4 °F 73% 30.00 in 10.0 mi NNE 6.9 mph - N/A   Overcast
2:14 AM 17.6 °F 9.3 °F 10.4 °F 73% 30.00 in 10.0 mi NNE 5.8 mph - N/A   Overcast
2:34 AM 17.6 °F 10.7 °F 10.4 °F 73% 30.01 in 10.0 mi NNE 4.6 mph - N/A   Overcast
2:54 AM 17.6 °F 9.3 °F 10.4 °F 73% 30.01 in 10.0 mi NNE 5.8 mph - N/A   Overcast
3:14 AM 17.6 °F 9.3 °F 10.4 °F 73% 30.01 in 10.0 mi NNE 5.8 mph - N/A   Overcast
3:34 AM 17.6 °F 7.3 °F 10.4 °F 73% 30.01 in 10.0 mi North 8.1 mph - N/A   Overcast
3:54 AM 17.6 °F 6.4 °F 10.4 °F 73% 30.01 in 10.0 mi North 9.2 mph - N/A   Overcast
4:14 AM 17.6 °F 7.3 °F 10.4 °F 73% 30.01 in 10.0 mi North 8.1 mph - N/A   Overcast
4:34 AM 17.6 °F 9.3 °F 10.4 °F 73% 30.01 in 10.0 mi North 5.8 mph - N/A   Overcast
4:53 AM 15.8 °F 5.1 °F 10.4 °F 79% 30.01 in 10.0 mi North 8.1 mph - N/A   Overcast
5:14 AM 15.8 °F 4.2 °F 10.4 °F 79% 30.01 in 10.0 mi North 9.2 mph - N/A   Overcast
5:34 AM 15.8 °F 6.1 °F 10.4 °F 79% 30.01 in 10.0 mi North 6.9 mph - N/A   Overcast
5:53 AM 15.8 °F 4.2 °F 10.4 °F 79% 30.02 in 10.0 mi North 9.2 mph - N/A   Overcast
6:14 AM 15.8 °F 4.2 °F 10.4 °F 79% 30.02 in 10.0 mi North 9.2 mph - N/A   Overcast
6:34 AM 15.8 °F 2.7 °F 10.4 °F 79% 30.03 in 10.0 mi North 11.5 mph - N/A   Overcast
6:54 AM 15.8 °F 4.2 °F 10.4 °F 79% 30.03 in 10.0 mi North 9.2 mph - N/A   Overcast
6:55 AM 15.8 °F 2.7 °F 10.4 °F 79% 30.03 in 10.0 mi North 11.5 mph - N/A   Overcast
7:45 AM 15.8 °F 2.7 °F 10.4 °F 79% 30.03 in 10.0 mi North 11.5 mph - N/A   Overcast
8:45 AM 15.8 °F 2.7 °F 10.4 °F 79% 30.05 in 10.0 mi North 11.5 mph - N/A   Mostly Cloudy
9:45 AM 15.8 °F 2.7 °F 10.4 °F 79% 30.06 in 10.0 mi North 11.5 mph - N/A   Mostly Cloudy
10:45 AM 15.8 °F 2.7 °F 10.4 °F 79% 30.08 in 10.0 mi NNW 11.5 mph - N/A   Mostly Cloudy
11:45 AM 17.6 °F 5.0 °F 10.4 °F 73% 30.09 in 10.0 mi NNW 11.5 mph - N/A   Clear
1:45 PM 17.6 °F 3.2 °F 6.8 °F 63% 30.09 in 10.0 mi NNW 15.0 mph - N/A   Clear
2:45 PM 17.6 °F 5.0 °F 3.2 °F 53% 30.09 in 10.0 mi NW 11.5 mph - N/A   Clear
3:45 PM 15.8 °F 2.7 °F 3.2 °F 58% 30.10 in 10.0 mi NW 11.5 mph - N/A   Clear
4:45 PM 14.0 °F 2.0 °F 1.4 °F 57% 30.13 in 10.0 mi NNW 9.2 mph - N/A   Clear
5:45 PM 12.2 °F 0.7 °F 1.4 °F 62% 30.15 in 10.0 mi NNW 8.1 mph - N/A   Clear
6:45 PM 10.4 °F -1.5 °F 3.2 °F 73% 30.18 in 10.0 mi NW 8.1 mph - N/A   Clear
7:45 PM 10.4 °F -1.5 °F 3.2 °F 73% 30.21 in 10.0 mi NW 8.1 mph - N/A   Clear
8:45 PM 8.6 °F -4.7 °F 3.2 °F 79% 30.23 in 10.0 mi NW 9.2 mph - N/A   Clear
9:14 PM 8.6 °F -2.6 °F 1.4 °F 73% 30.24 in 10.0 mi WNW 6.9 mph - N/A   Clear
9:34 PM 6.8 °F -3.5 °F 1.4 °F 79% 30.25 in 10.0 mi WNW 5.8 mph - N/A   Clear
9:54 PM 6.8 °F -4.8 °F 1.4 °F 79% 30.26 in 10.0 mi WNW 6.9 mph - N/A   Clear
10:14 PM 6.8 °F -8.6 °F 1.4 °F 79% 30.25 in 10.0 mi NW 11.5 mph - N/A   Clear
10:34 PM 6.8 °F -6.9 °F 1.4 °F 79% 30.25 in 10.0 mi NW 9.2 mph - N/A   Clear
10:53 PM 6.8 °F -5.9 °F 1.4 °F 79% 30.26 in 10.0 mi NNW 8.1 mph - N/A   Clear
11:14 PM 6.8 °F -3.5 °F 1.4 °F 79% 30.27 in 10.0 mi NW 5.8 mph - N/A   Clear
11:34 PM 6.8 °F -4.8 °F 1.4 °F 79% 30.27 in 10.0 mi NNW 6.9 mph - N/A   Clear
11:54 PM 5.0 °F -5.6 °F 1.4 °F 85% 30.28 in 10.0 mi NW 5.8 mph - N/A   Clear